When you browse on this site, cookies collect data to enhance your experience and personalize the content and advertising you see.
Visit our Privacy Policy to learn more. By continuing to use the site, you agree to this use of cookies and data.
  • In Germany
  • List of Countries
  • For 7 days
  • Water Temperature
  • Weather Map
  • Weather Widgets
  • user-avatar
    Login

    Hourly Weather Visim

    Today, 17 October, Thursday

    Time Temperature Precipitation Wind Pressure Humidity
    00:00 -3°C° 0 mm 4 mps 738 mmHg 83%
    01:00 -3°C° 0 mm 4 mps 739 mmHg 82%
    02:00 -3°C° 0 mm 4 mps 739 mmHg 81%
    03:00 -3°C° 0 mm 4 mps 740 mmHg 81%
    04:00 -1°C° 0 mm 3 mps 740 mmHg 82%
    05:00 -1°C° 0 mm 3 mps 740 mmHg 82%
    06:00 -2°C° 0 mm 3 mps 741 mmHg 81%
    07:00 -3°C° 0 mm 4 mps 741 mmHg 81%
    08:00 -1°C° 0 mm 3 mps 741 mmHg 78%
    09:00 -1°C° 0 mm 3 mps 741 mmHg 75%
    10:00 -1°C° 0 mm 3 mps 741 mmHg 72%
    11:00 -1°C° 0 mm 3 mps 741 mmHg 71%
    12:00 0°C° 0 mm 3 mps 741 mmHg 71%
    13:00 0°C° 0 mm 3 mps 740 mmHg 70%
    14:00 0°C° 0 mm 3 mps 740 mmHg 71%
    15:00 +1°C° 0 mm 2 mps 740 mmHg 73%
    16:00 +1°C° 0 mm 2 mps 740 mmHg 75%
    17:00 -1°C° 0.2 mm 2 mps 740 mmHg 82%
    18:00 -1°C° 0.2 mm 2 mps 739 mmHg 88%
    19:00 0°C° 0.2 mm 1 mps 739 mmHg 95%
    20:00 0°C° 0.5 mm 1 mps 739 mmHg 96%
    21:00 -2°C° 0.5 mm 2 mps 738 mmHg 96%
    22:00 -2°C° 0.5 mm 2 mps 738 mmHg 97%
    23:00 0°C° 0.4 mm 1 mps 737 mmHg 97%

    Tomorrow, 18 October, Friday

    Time Temperature Precipitation Wind Pressure Humidity
    00:00 0°C° 0.4 mm 1 mps 736 mmHg 97%
    01:00 0°C° 0.4 mm 1 mps 736 mmHg 97%
    02:00 -2°C° 0.7 mm 2 mps 735 mmHg 97%
    03:00 -1°C° 0.7 mm 2 mps 735 mmHg 97%
    04:00 -1°C° 0.7 mm 2 mps 735 mmHg 97%
    05:00 -1°C° 0.4 mm 2 mps 734 mmHg 97%
    06:00 -1°C° 0.4 mm 2 mps 734 mmHg 97%
    07:00 -1°C° 0.4 mm 2 mps 733 mmHg 97%
    08:00 -1°C° 0.3 mm 2 mps 733 mmHg 96%
    09:00 -1°C° 0.3 mm 2 mps 733 mmHg 95%
    10:00 0°C° 0.3 mm 3 mps 734 mmHg 94%
    11:00 0°C° 0.1 mm 3 mps 734 mmHg 94%
    12:00 0°C° 0.1 mm 3 mps 734 mmHg 94%
    13:00 0°C° 0.1 mm 3 mps 734 mmHg 93%
    14:00 -1°C° 0.2 mm 4 mps 734 mmHg 93%
    15:00 -2°C° 0.2 mm 4 mps 735 mmHg 93%
    16:00 -2°C° 0.2 mm 4 mps 735 mmHg 93%
    17:00 -2°C° 0 mm 4 mps 735 mmHg 93%
    18:00 -3°C° 0 mm 4 mps 736 mmHg 93%
    19:00 -3°C° 0 mm 4 mps 736 mmHg 93%
    20:00 -4°C° 0 mm 4 mps 737 mmHg 92%
    21:00 -5°C° 0 mm 5 mps 737 mmHg 90%
    22:00 -5°C° 0 mm 5 mps 738 mmHg 89%
    23:00 -5°C° 0 mm 4 mps 738 mmHg 89%

    Day after tomorrow, 19 October, Saturday

    Time Temperature Precipitation Wind Pressure Humidity
    00:00 -5°C° 0 mm 4 mps 739 mmHg 89%
    01:00 -7°C° 0 mm 4 mps 739 mmHg 89%
    02:00 -7°C° 0 mm 4 mps 740 mmHg 90%
    03:00 -7°C° 0 mm 3 mps 740 mmHg 92%
    04:00 -8°C° 0 mm 3 mps 741 mmHg 93%
    05:00 -8°C° 0 mm 3 mps 741 mmHg 93%
    06:00 -8°C° 0 mm 3 mps 742 mmHg 92%
    07:00 -9°C° 0 mm 3 mps 742 mmHg 92%
    08:00 -7°C° 0 mm 3 mps 742 mmHg 87%
    09:00 -6°C° 0 mm 3 mps 743 mmHg 81%
    10:00 -5°C° 0 mm 3 mps 743 mmHg 75%
    11:00 -4°C° 0 mm 3 mps 744 mmHg 73%
    12:00 -4°C° 0 mm 3 mps 744 mmHg 70%
    13:00 -2°C° 0 mm 3 mps 744 mmHg 68%
    14:00 -2°C° 0 mm 3 mps 744 mmHg 71%
    15:00 -3°C° 0 mm 2 mps 744 mmHg 73%
    16:00 -3°C° 0 mm 2 mps 744 mmHg 76%
    17:00 -4°C° 0 mm 2 mps 744 mmHg 80%
    18:00 -5°C° 0 mm 2 mps 745 mmHg 84%
    19:00 -4°C° 0 mm 1 mps 745 mmHg 88%
    20:00 -6°C° 0 mm 1 mps 745 mmHg 89%
    21:00 -6°C° 0 mm 1 mps 745 mmHg 90%
    22:00 -6°C° 0 mm 1 mps 746 mmHg 91%
    23:00 -6°C° 0 mm 1 mps 746 mmHg 92%

    20 October, Sunday

    Time Temperature Precipitation Wind Pressure Humidity
    00:00 -6°C° 0 mm 1 mps 745 mmHg 92%
    01:00 -7°C° 0 mm 1 mps 745 mmHg 93%
    02:00 -7°C° 0 mm 1 mps 745 mmHg 93%
    03:00 -7°C° 0 mm 1 mps 746 mmHg 93%
    04:00 -7°C° 0 mm 1 mps 746 mmHg 93%
    05:00 -7°C° 0 mm 1 mps 746 mmHg 93%
    06:00 -7°C° 0 mm 1 mps 746 mmHg 93%
    07:00 -7°C° 0 mm 1 mps 746 mmHg 93%
    08:00 -6°C° 0 mm 2 mps 745 mmHg 88%
    09:00 -5°C° 0 mm 2 mps 745 mmHg 83%
    10:00 -3°C° 0 mm 2 mps 745 mmHg 78%
    11:00 -2°C° 0 mm 2 mps 745 mmHg 79%
    12:00 -1°C° 0 mm 2 mps 745 mmHg 79%
    13:00 +1°C° 0 mm 2 mps 744 mmHg 79%
    14:00 +1°C° 0 mm 2 mps 744 mmHg 82%
    15:00 +1°C° 0 mm 2 mps 744 mmHg 85%
    16:00 +1°C° 0 mm 2 mps 744 mmHg 87%
    17:00 +1°C° 0 mm 2 mps 744 mmHg 89%
    18:00 0°C° 0 mm 3 mps 743 mmHg 92%
    19:00 0°C° 0 mm 3 mps 743 mmHg 94%
    20:00 0°C° 0 mm 3 mps 743 mmHg 93%
    21:00 -1°C° 0 mm 4 mps 742 mmHg 93%
    22:00 0°C° 0 mm 4 mps 742 mmHg 92%
    23:00 0°C° 0 mm 4 mps 742 mmHg 91%

    21 October, Monday

    Time Temperature Precipitation Wind Pressure Humidity
    00:00 0°C° 0 mm 5 mps 741 mmHg 91%
    01:00 0°C° 0 mm 5 mps 741 mmHg 90%
    02:00 0°C° 0 mm 5 mps 740 mmHg 90%
    03:00 0°C° 0 mm 5 mps 740 mmHg 89%
    04:00 0°C° 0 mm 5 mps 739 mmHg 89%
    05:00 -1°C° 0.2 mm 6 mps 739 mmHg 90%
    06:00 +1°C° 0.2 mm 6 mps 738 mmHg 91%
    07:00 +1°C° 0.2 mm 6 mps 738 mmHg 91%
    08:00 +1°C° 0.4 mm 5 mps 737 mmHg 92%
    09:00 +2°C° 0.4 mm 5 mps 737 mmHg 93%
    10:00 +2°C° 0.4 mm 5 mps 737 mmHg 94%
    11:00 +2°C° 0.2 mm 5 mps 737 mmHg 95%
    12:00 +4°C° 0.2 mm 4 mps 737 mmHg 95%
    13:00 +4°C° 0.2 mm 4 mps 736 mmHg 96%
    14:00 +4°C° 0.5 mm 4 mps 736 mmHg 96%
    15:00 +4°C° 0.5 mm 4 mps 736 mmHg 97%
    16:00 +4°C° 0.5 mm 3 mps 736 mmHg 97%
    17:00 +4°C° 0.4 mm 3 mps 736 mmHg 97%
    18:00 +4°C° 0.4 mm 3 mps 736 mmHg 97%
    19:00 +4°C° 0.4 mm 3 mps 736 mmHg 97%
    20:00 +4°C° 0.2 mm 3 mps 735 mmHg 97%
    21:00 +4°C° 0.2 mm 3 mps 735 mmHg 98%
    22:00 +4°C° 0.2 mm 3 mps 734 mmHg 98%
    23:00 +4°C° 0.8 mm 3 mps 734 mmHg 97%

    22 October, Tuesday

    Time Temperature Precipitation Wind Pressure Humidity
    00:00 +4°C° 0.8 mm 3 mps 733 mmHg 97%
    01:00 +5°C° 0.8 mm 3 mps 732 mmHg 97%
    02:00 +5°C° 1.8 mm 4 mps 731 mmHg 96%
    03:00 +6°C° 1.8 mm 5 mps 730 mmHg 96%
    04:00 +6°C° 1.8 mm 5 mps 729 mmHg 95%
    05:00 +7°C° 1.8 mm 6 mps 729 mmHg 94%
    06:00 +7°C° 1.8 mm 6 mps 728 mmHg 93%
    07:00 +6°C° 1.8 mm 7 mps 728 mmHg 92%
    08:00 +7°C° 0 mm 6 mps 728 mmHg 91%
    09:00 +7°C° 0 mm 6 mps 728 mmHg 90%
    10:00 +7°C° 0 mm 5 mps 728 mmHg 90%
    11:00 +8°C° 0.1 mm 5 mps 729 mmHg 85%
    12:00 +8°C° 0.1 mm 6 mps 729 mmHg 81%
    13:00 +8°C° 0.1 mm 6 mps 729 mmHg 77%
    14:00 +8°C° 0 mm 5 mps 730 mmHg 81%
    15:00 +7°C° 0 mm 4 mps 730 mmHg 84%
    16:00 +6°C° 0 mm 4 mps 730 mmHg 88%
    17:00 +5°C° 0 mm 3 mps 731 mmHg 89%
    18:00 +5°C° 0 mm 3 mps 731 mmHg 91%
    19:00 +5°C° 0 mm 2 mps 731 mmHg 92%
    20:00 +5°C° 0 mm 2 mps 731 mmHg 93%
    21:00 +4°C° 0 mm 2 mps 731 mmHg 95%
    22:00 +4°C° 0 mm 1 mps 731 mmHg 96%
    23:00 +4°C° 0 mm 1 mps 731 mmHg 95%
    Show more